Current weather by "City, St" or "zip code"  
 

Current Conditions: Virginia Tech Airport, VA

Partly Cloudy


68.0 F

Last Updated on Sep 18 2020, 10:55 am EDT
Humidity: 77%
Wind Speed: N 10.4 mph
Barometer 30.08 in
Dewpoint: 60.3 F
Visibility: 10.00 mi
Precip: --
Heat Index: NA
Wind Chill: NA
Current conditions at:

Virginia Tech Airport, VA (KBCB)

Lat: 37.21667 Lon: 80.41667

Local Radar Image active severe weather and emergency alerts image image weather storm and storm spotter reports image weather observation monitoring service image
Local
Radar
Active
Alerts
Storm Reports Obs
Monitoring

Sign-up For Email & Text Message Weather Alert Notification Services



Advertise Here

Observation History for Virginia Tech Airport, VA


Time Wind
(mph)
Vis
(mi)
Weather Precip (in) Temperature (F) Relative
Humidity
Wind
Chill
(F)
Heat
Index
(F)
Pressure
Air Dwpt altimeter
(in)
sea level
(mb)
Rmks
10:55 am EDT N 10.4 10.00 Partly Cloudy -- 68.0 60.3 77% NA NA 30.08 M
9:55 am EDT N 5.8 10.00 Mostly Cloudy -- 65.0 61.2 87% NA NA 30.06 M
8:55 am EDT N 0.0 10.00 Fair -- 64.0 62.1 95% NA NA 30.04 M
7:55 am EDT N 3.5 10.00 Mostly Cloudy -- 61.0 61.2 100% NA NA 30.02 M
6:55 am EDT N 4.6 10.00 Partly Cloudy -- 61.0 60.8 100% 61 NA 30.00 M
6:35 am EDT N 0.0 5.00 Fog/Mist -- 60.0 60.1 100% NA NA 30.00 M
5:55 am EDT N 0.0 7.00 Mostly Cloudy -- 60.0 60.4 100% NA NA 29.99 M
4:55 am EDT N 0.0 10.00 Overcast -- 62.0 62.1 100% NA NA 29.97 M
3:55 am EDT N 0.0 10.00 Overcast -- 63.0 62.6 100% NA NA 29.97 M
3:35 am EDT N 0.0 10.00 Overcast -- 62.0 62.2 100% NA NA 29.97 M
2:55 am EDT N 0.0 10.00 Overcast -- 63.0 63.0 100% NA NA 29.97 M
1:55 am EDT N 0.0 10.00 Overcast -- 63.0 62.8 100% NA NA 29.98 M
1:15 am EDT NE 4.6 7.00 Overcast -- 63.0 62.8 100% 64 NA 29.98 M
12:55 am EDT N 0.0 3.00 Drizzle 00.02 63.0 62.6 100% NA NA 29.98 M
12:35 am EDT N 0.0 2.50 Heavy Drizzle 00.02 63.0 62.8 100% NA NA 29.99 M
11:55 pm EDT N 0.0 4.00 Drizzle -- 63.0 62.8 100% NA NA 29.99 M
11:35 pm EDT N 3.5 5.00 Fog/Mist -- 63.0 62.8 100% NA NA 29.99 M
10:55 pm EDT NE 5.8 5.00 Fog/Mist -- 63.0 62.6 100% 63 NA 29.99 M
9:55 pm EDT NE 5.8 10.00 Overcast -- 63.0 62.6 100% 63 NA 29.99 M
8:55 pm EDT NE 3.5 4.00 Drizzle -- 63.0 62.6 100% NA NA 29.99 M
7:55 pm EDT NE 4.6 10.00 Light Rain -- 63.0 62.6 100% 64 NA 29.99 M
7:35 pm EDT E 9.2 10.00 Light Drizzle -- 62.0 62.1 100% 61 NA 29.98 M
6:55 pm EDT E 9.2 10.00 Light Rain 00.03 62.0 62.1 100% 61 NA 29.98 M
5:55 pm EDT E 6.9 10.00 Light Rain -- 62.0 62.1 100% 62 NA 29.99 M

Regional Weather Observation


Virginia Tech Airport, VA (KBCB)

Partly Cloudy
68.0 F

Lewisburg / Greenbrier, WV (KLWB)

Mostly Cloudy
63.0 F

Bluefield, Mercer County Airport, WV (KBLF)

Overcast
60.0 F

Beckley, Raleigh County Memorial Airport, WV (KBKW)

Fog/Mist
59.0 F

Roanoke, Roanoke Regional Airport, VA (KROA)

Partly Cloudy
72.0 F

Pineville, Kee Field Airport, WV (KI16)

Overcast
64.0 F